TimeEST,TemperatureF,Dew PointF,Humidity,Sea Level PressureIn,VisibilityMPH,Wind Direction,Wind SpeedMPH,Gust SpeedMPH,PrecipitationIn,Events,Conditions,WindDirDegrees,DateUTC
12:15 AM,47.3,45.3,93,30.27,10.0,Calm,Calm,-,N/A,,Clear,0,2012-12-04 05:15:00
12:35 AM,45.5,43.7,93,30.27,10.0,Calm,Calm,-,N/A,,Clear,0,2012-12-04 05:35:00
12:55 AM,45.7,44.1,94,30.27,10.0,Calm,Calm,-,N/A,,Clear,0,2012-12-04 05:55:00
1:15 AM,45.7,44.1,94,30.27,10.0,Calm,Calm,-,N/A,,Clear,0,2012-12-04 06:15:00
1:35 AM,46.0,44.2,93,30.27,10.0,Calm,Calm,-,N/A,,Clear,0,2012-12-04 06:35:00
1:55 AM,44.8,43.2,94,30.27,10.0,Calm,Calm,-,N/A,,Clear,0,2012-12-04 06:55:00
2:15 AM,44.1,42.4,94,30.27,10.0,Calm,Calm,-,N/A,,Clear,0,2012-12-04 07:15:00
2:35 AM,44.6,43.0,94,30.27,10.0,Calm,Calm,-,N/A,,Clear,0,2012-12-04 07:35:00
2:55 AM,44.1,42.6,95,30.27,10.0,Calm,Calm,-,N/A,,Clear,0,2012-12-04 07:55:00
3:15 AM,42.1,40.6,95,30.27,10.0,Calm,Calm,-,N/A,,Clear,0,2012-12-04 08:15:00
3:55 AM,42.8,41.4,95,30.27,10.0,Calm,Calm,-,N/A,,Clear,0,2012-12-04 08:55:00
4:15 AM,42.8,41.4,95,30.27,7.0,Calm,Calm,-,N/A,,Clear,0,2012-12-04 09:15:00
4:35 AM,41.4,40.1,95,30.27,10.0,Calm,Calm,-,N/A,,Clear,0,2012-12-04 09:35:00
4:55 AM,41.2,39.7,95,30.27,2.5,Calm,Calm,-,N/A,,Clear,0,2012-12-04 09:55:00
5:15 AM,41.2,40.1,96,30.27,10.0,Calm,Calm,-,N/A,,Clear,0,2012-12-04 10:15:00
5:35 AM,41.0,39.6,95,30.27,7.0,Calm,Calm,-,N/A,,Clear,0,2012-12-04 10:35:00
5:55 AM,40.5,39.4,96,30.28,7.0,Calm,Calm,-,N/A,,Clear,0,2012-12-04 10:55:00
6:15 AM,40.1,39.2,97,30.29,10.0,Calm,Calm,-,N/A,,Clear,0,2012-12-04 11:15:00
6:35 AM,40.1,38.8,95,30.29,10.0,Calm,Calm,-,N/A,,Clear,0,2012-12-04 11:35:00
6:55 AM,40.1,39.0,96,30.30,10.0,Calm,Calm,-,N/A,,Clear,0,2012-12-04 11:55:00
7:15 AM,39.6,38.5,96,30.30,7.0,Calm,Calm,-,N/A,,Mostly Cloudy,0,2012-12-04 12:15:00
7:35 AM,40.1,39.2,97,30.31,7.0,Calm,Calm,-,N/A,,Mostly Cloudy,0,2012-12-04 12:35:00
7:55 AM,40.3,39.2,96,30.31,7.0,Calm,Calm,-,N/A,,Scattered Clouds,0,2012-12-04 12:55:00
8:15 AM,43.0,41.9,96,30.31,10.0,Calm,Calm,-,N/A,,Mostly Cloudy,0,2012-12-04 13:15:00
8:35 AM,45.1,43.9,95,30.32,7.0,Calm,Calm,-,N/A,,Mostly Cloudy,0,2012-12-04 13:35:00
8:55 AM,47.5,46.2,95,30.32,10.0,Calm,Calm,-,N/A,,Overcast,0,2012-12-04 13:55:00
9:15 AM,49.1,47.7,95,30.32,10.0,Calm,Calm,-,N/A,,Overcast,0,2012-12-04 14:15:00
9:35 AM,50.4,48.7,94,30.32,10.0,Calm,Calm,-,N/A,,Overcast,0,2012-12-04 14:35:00
9:55 AM,52.7,50.9,94,30.32,10.0,Calm,Calm,-,N/A,,Overcast,0,2012-12-04 14:55:00
10:15 AM,54.1,51.6,91,30.32,10.0,Calm,Calm,-,N/A,,Overcast,0,2012-12-04 15:15:00
10:35 AM,55.6,52.0,88,30.32,10.0,Calm,Calm,-,N/A,,Overcast,0,2012-12-04 15:35:00
10:55 AM,57.2,52.5,84,30.32,10.0,Calm,Calm,-,N/A,,Overcast,0,2012-12-04 15:55:00
11:15 AM,58.5,52.9,82,30.31,10.0,Calm,Calm,-,N/A,,Overcast,0,2012-12-04 16:15:00
11:35 AM,59.9,53.6,80,30.30,10.0,Calm,Calm,-,N/A,,Overcast,0,2012-12-04 16:35:00
11:55 AM,61.7,54.0,76,30.28,10.0,Calm,Calm,-,N/A,,Overcast,0,2012-12-04 16:55:00
12:15 PM,63.7,54.9,73,30.27,10.0,Calm,Calm,-,N/A,,Overcast,0,2012-12-04 17:15:00
12:35 PM,65.7,55.4,69,30.26,10.0,Calm,Calm,-,N/A,,Overcast,0,2012-12-04 17:35:00
12:55 PM,68.5,55.8,64,30.25,10.0,SSW,3.5,-,N/A,,Overcast,210,2012-12-04 17:55:00
1:15 PM,70.0,55.8,61,30.24,10.0,SW,3.5,-,N/A,,Overcast,230,2012-12-04 18:15:00
1:35 PM,71.4,54.5,55,30.23,10.0,SSW,6.9,-,N/A,,Overcast,210,2012-12-04 18:35:00
1:55 PM,70.7,53.1,54,30.22,10.0,SSW,9.2,-,N/A,,Overcast,210,2012-12-04 18:55:00
2:15 PM,71.8,53.2,52,30.22,10.0,SW,5.8,-,N/A,,Mostly Cloudy,220,2012-12-04 19:15:00
2:35 PM,72.5,52.2,49,30.21,10.0,SW,6.9,-,N/A,,Mostly Cloudy,220,2012-12-04 19:35:00
2:55 PM,71.4,51.1,49,30.21,10.0,SW,8.1,16.1,N/A,,Overcast,220,2012-12-04 19:55:00
3:15 PM,71.8,52.3,50,30.21,10.0,SSW,8.1,-,N/A,,Overcast,200,2012-12-04 20:15:00
3:35 PM,70.7,51.8,51,30.21,10.0,SSW,9.2,-,N/A,,Scattered Clouds,200,2012-12-04 20:35:00
3:55 PM,69.6,52.2,54,30.21,10.0,SSW,5.8,-,N/A,,Clear,200,2012-12-04 20:55:00
4:15 PM,69.3,52.0,54,30.21,10.0,SSW,10.4,-,N/A,,Clear,200,2012-12-04 21:15:00
4:35 PM,68.2,51.8,56,30.21,10.0,South,4.6,-,N/A,,Clear,190,2012-12-04 21:35:00
4:55 PM,66.2,51.8,60,30.21,10.0,South,3.5,-,N/A,,Clear,180,2012-12-04 21:55:00
5:15 PM,64.6,52.0,64,30.21,10.0,SSW,4.6,-,N/A,,Clear,200,2012-12-04 22:15:00
6:15 PM,59.2,51.4,75,30.21,10.0,Calm,Calm,-,N/A,,Clear,0,2012-12-04 23:15:00
6:35 PM,57.2,51.1,80,30.21,10.0,Calm,Calm,-,N/A,,Clear,0,2012-12-04 23:35:00
6:55 PM,55.8,51.4,85,30.22,10.0,Calm,Calm,-,N/A,,Clear,0,2012-12-04 23:55:00
7:15 PM,55.2,51.1,86,30.22,10.0,Calm,Calm,-,N/A,,Clear,0,2012-12-05 00:15:00
7:35 PM,54.1,50.2,86,30.22,10.0,Calm,Calm,-,N/A,,Clear,0,2012-12-05 00:35:00
7:55 PM,53.4,50.0,88,30.22,10.0,Calm,Calm,-,N/A,,Clear,0,2012-12-05 00:55:00
8:15 PM,52.9,50.2,91,30.21,10.0,Calm,Calm,-,N/A,,Clear,0,2012-12-05 01:15:00
8:35 PM,52.7,50.0,91,30.21,10.0,Calm,Calm,-,N/A,,Clear,0,2012-12-05 01:35:00
8:55 PM,51.8,49.6,92,30.21,10.0,Calm,Calm,-,N/A,,Clear,0,2012-12-05 01:55:00
9:15 PM,51.4,49.3,92,30.21,10.0,Calm,Calm,-,N/A,,Clear,0,2012-12-05 02:15:00
9:35 PM,51.3,49.3,93,30.21,10.0,Calm,Calm,-,N/A,,Clear,0,2012-12-05 02:35:00
9:55 PM,50.9,48.7,92,30.20,10.0,Calm,Calm,-,N/A,,Clear,0,2012-12-05 02:55:00
10:15 PM,50.7,48.6,92,30.21,10.0,Calm,Calm,-,N/A,,Clear,0,2012-12-05 03:15:00
10:35 PM,49.8,48.0,94,30.20,10.0,Calm,Calm,-,N/A,,Clear,0,2012-12-05 03:35:00
10:55 PM,50.7,48.9,94,30.20,10.0,Calm,Calm,-,N/A,,Clear,0,2012-12-05 03:55:00
11:15 PM,49.5,47.3,92,30.20,10.0,Calm,Calm,-,N/A,,Clear,0,2012-12-05 04:15:00
11:35 PM,51.8,50.0,94,30.19,10.0,Calm,Calm,-,N/A,,Clear,0,2012-12-05 04:35:00
11:55 PM,52.9,50.7,92,30.19,10.0,Calm,Calm,-,N/A,,Clear,0,2012-12-05 04:55:00